Wind_Speed
44 44 43 43 42 42 41 41 40 40 39 39 38 38 37 37 36 36 36 35 35 35 34 34 34 34 34 34 35 35 36 36 37 37 37 38 38 39 39 40 40 41 41
45 44 44 43 43 42 41 41 41 41 40 40 40 39 39 38 38 37 36 36 36 35 35 35 35 35 36 36 36 37 37 37 38 38 38 38 38 39 39 40 40 41 41
45 44 44 44 43 42 42 42 41 41 41 41 40 40 40 39 39 38 37 37 36 36 36 37 37 37 38 38 38 39 39 39 39 39 40 40 40 39 39 40 41 42 43
45 44 44 44 43 43 43 42 42 41 41 41 41 41 40 40 40 39 39 38 38 38 38 38 38 39 39 40 40 41 40 40 40 41 41 41 41 41 40 40 42 43 44
46 45 45 44 44 44 44 43 43 42 42 42 42 42 41 41 40 40 40 40 40 40 40 40 40 41 41 41 42 41 41 41 41 41 41 41 42 42 42 42 43 44 45
46 45 45 44 44 44 44 44 43 43 43 43 43 42 42 41 41 41 41 42 42 42 42 42 42 42 42 41 41 41 41 41 42 42 42 42 42 43 43 44 44 44 45
45 45 45 44 44 44 44 44 44 44 43 43 43 43 42 42 42 42 43 43 43 43 43 43 43 42 42 42 41 41 42 42 42 42 42 43 43 44 45 45 45 46 46
45 45 45 45 44 44 44 44 44 44 44 44 44 43 43 43 43 43 43 43 43 43 43 43 43 43 42 42 42 42 42 43 43 43 44 44 45 46 46 47 47 47 47
45 45 45 45 45 45 45 45 45 44 44 44 44 44 44 44 44 44 44 43 43 43 43 43 44 43 43 43 44 43 44 44 44 45 45 46 46 47 48 48 48 49 49
45 45 45 45 45 45 46 46 45 45 45 45 45 45 45 45 45 44 44 44 44 44 44 44 43 43 44 44 45 45 45 46 46 47 47 47 48 49 49 49 50 50 51
44 45 45 45 45 46 46 46 46 46 46 46 46 45 45 45 45 45 45 45 45 45 45 44 44 44 44 45 46 46 47 47 47 47 48 49 49 49 50 51 51 52 52
43 44 45 45 45 45 46 46 46 46 46 46 46 46 45 45 45 45 45 46 46 46 46 45 45 45 46 46 47 47 48 48 47 48 49 49 50 50 51 51 51 52 52
42 43 44 45 45 45 45 45 46 46 47 47 47 46 46 46 46 46 46 46 46 46 46 46 46 46 46 47 47 47 48 48 48 48 49 49 50 50 50 50 51 51 52
41 42 43 44 44 45 45 45 46 46 47 46 46 46 46 47 47 47 47 47 46 46 46 46 46 46 47 47 47 47 47 47 48 48 49 49 50 49 50 50 51 51 52
40 40 41 43 44 45 45 45 46 47 47 47 47 47 47 47 47 47 47 47 47 47 47 46 46 46 46 47 47 47 48 48 48 48 48 48 49 49 50 51 51 51 51
39 40 41 42 43 44 45 46 46 47 47 47 47 47 47 47 47 47 47 47 46 46 46 46 46 46 46 46 47 47 48 49 49 48 48 48 49 50 50 51 50 50 49
39 39 41 42 43 44 44 45 46 47 47 47 47 47 47 47 46 47 47 47 46 46 46 46 47 47 47 47 47 47 47 47 47 47 48 48 48 50 50 49 48 47 47
38 39 40 41 42 43 44 44 44 45 46 47 47 47 47 46 46 46 46 46 46 46 46 47 47 48 47 47 47 47 47 47 47 47 48 48 48 48 48 47 46 45 44
38 39 39 40 41 42 43 44 44 44 45 46 46 46 46 46 46 46 46 46 45 46 46 46 47 47 47 47 47 47 47 46 46 46 46 47 47 46 46 46 44 42 40
38 38 39 39 40 41 42 42 43 43 44 45 45 46 46 46 46 46 45 45 45 45 45 46 46 46 46 46 46 46 46 45 45 45 45 45 45 45 44 42 40 39 37
37 37 38 38 39 40 40 41 41 42 43 43 44 45 45 45 45 45 45 45 45 44 44 45 45 45 45 45 45 45 44 44 44 43 43 43 43 41 40 39 38 38 37
36 37 37 36 37 38 38 39 40 40 40 41 41 42 43 43 44 44 44 44 44 44 44 44 44 43 43 43 43 42 42 42 43 43 42 40 39 39 39 39 38 38 38
34 35 35 35 36 37 37 38 38 39 39 40 40 40 41 41 42 42 42 42 42 42 42 42 42 41 41 41 40 40 40 41 41 41 40 39 39 39 38 38 37 37 36
32 33 34 34 36 36 36 37 37 37 37 38 39 39 40 40 40 40 40 40 40 41 41 40 40 40 40 39 39 39 39 39 39 39 38 38 38 37 36 35 34 34 34
31 32 33 33 34 35 35 35 36 36 37 37 37 38 38 38 38 38 38 38 38 39 39 38 38 38 38 37 37 37 37 37 37 36 36 36 35 34 33 33 32 32 31
30 30 31 32 32 33 34 34 35 35 36 37 37 37 37 38 38 37 37 37 37 37 37 37 36 36 36 35 35 35 35 35 35 34 34 33 32 32 31 31 30 29 29
Wind_Direction
234 235 236 237 238 239 240 241 243 244 244 245 247 248 249 250 252 255 257 259 261 262 263 265 268 271 272 274 276 278 279 279 280 280 281 282 283 284 284 285 286 287 287
234 235 235 237 238 239 240 240 242 243 244 246 247 248 249 250 252 255 257 259 261 262 263 265 269 271 272 274 276 278 279 279 280 281 282 282 283 284 284 286 287 287 288
235 236 236 237 238 239 240 241 242 243 244 246 247 248 250 251 253 255 257 259 260 262 264 266 269 271 273 275 276 278 279 279 280 281 282 282 282 283 284 285 286 287 287
235 236 237 237 238 239 240 241 242 243 244 246 247 248 250 252 254 255 257 259 261 263 266 268 269 271 273 275 276 278 278 279 280 281 282 283 284 284 284 284 286 287 288
235 236 237 237 238 238 239 241 242 243 244 245 247 249 250 252 254 256 258 260 262 264 267 269 270 272 274 276 277 277 278 279 280 281 282 282 283 284 286 286 287 288 289
235 236 236 237 238 239 239 240 241 242 244 245 247 249 251 253 255 257 259 261 263 265 267 269 271 272 274 275 276 277 278 279 280 281 282 283 284 285 286 287 288 288 290
235 235 236 237 238 239 240 240 241 242 243 245 247 249 251 253 255 257 259 262 264 265 267 269 271 272 273 274 275 276 278 279 280 281 282 283 284 285 287 288 288 288 289
235 236 237 237 238 239 239 240 242 243 244 245 247 249 251 253 255 258 260 262 264 266 267 269 270 272 272 273 275 276 278 279 280 282 283 284 284 285 287 288 288 289 290
235 236 237 237 238 239 240 241 242 243 245 246 248 249 251 253 255 258 260 262 263 265 267 269 271 271 272 273 275 276 278 280 281 282 283 284 285 286 287 288 288 289 290
236 236 236 237 238 239 241 241 242 243 245 247 249 250 252 254 255 258 260 262 264 266 268 269 270 271 273 274 275 277 279 280 282 282 283 284 285 286 287 288 289 290 291
237 237 237 237 238 240 241 242 242 244 245 247 249 251 253 255 256 257 259 262 264 266 268 269 270 271 273 274 276 278 279 280 282 283 284 284 286 287 287 289 289 290 291
238 238 238 238 239 240 241 242 243 244 246 247 249 251 253 255 257 258 260 262 265 267 268 269 270 272 273 275 276 278 280 281 282 283 284 285 286 287 288 289 289 290 291
239 239 239 239 240 240 242 243 244 245 247 248 249 251 253 255 257 259 261 264 265 266 268 269 270 271 273 275 276 278 279 281 282 283 284 285 286 288 288 289 290 290 291
240 239 239 239 239 240 241 242 244 246 247 248 250 252 254 256 258 260 262 264 265 266 268 269 270 271 273 274 276 277 279 280 281 283 284 285 286 287 288 289 290 291 292
240 239 239 239 240 241 242 243 244 246 247 249 251 252 254 256 258 260 262 263 265 266 268 270 271 272 273 274 276 277 278 280 281 282 284 285 286 288 288 290 290 291 292
241 241 240 240 241 242 243 244 245 246 247 249 251 252 254 256 258 260 261 263 265 267 268 270 271 272 274 275 277 277 278 280 281 281 282 285 286 288 289 290 291 291 291
242 242 242 242 242 243 244 245 245 246 247 248 250 252 253 255 257 259 261 263 266 267 269 270 271 273 274 275 277 279 280 281 282 282 283 284 286 288 289 290 290 291 291
242 243 243 243 243 244 245 246 246 246 247 248 250 251 253 255 257 259 261 263 265 267 269 270 272 273 274 276 277 278 279 281 282 283 285 286 287 288 288 288 290 290 291
243 243 244 244 244 244 244 245 246 246 247 248 250 252 253 255 257 259 261 263 265 268 269 271 272 273 275 276 277 278 279 281 282 284 285 286 286 287 287 288 289 289 289
245 245 245 245 245 246 246 247 246 247 248 249 251 252 254 256 257 260 261 264 266 268 270 271 273 274 275 276 277 278 279 280 281 282 284 285 286 286 287 288 288 289 289
247 248 247 247 247 247 248 249 248 249 249 251 252 252 254 256 258 260 262 264 267 269 270 272 274 275 276 276 277 277 278 280 281 282 283 284 285 285 285 286 288 289 289
248 249 249 249 247 247 248 249 249 249 250 251 253 254 255 256 258 261 263 266 268 270 271 272 274 275 276 276 277 277 278 280 281 282 283 283 283 284 285 287 288 288 289
247 247 248 248 247 247 247 248 250 250 251 252 253 254 255 257 259 261 263 266 268 269 270 272 273 274 275 276 276 277 278 279 280 281 280 281 282 284 286 287 287 287 287
245 245 246 247 247 248 248 248 249 250 251 252 254 254 255 258 260 262 264 265 267 268 269 270 272 274 274 275 275 277 278 278 279 280 281 282 284 284 284 284 285 285 287
245 246 247 246 246 247 248 248 248 249 251 253 254 256 257 259 261 263 264 265 267 269 269 270 271 273 273 274 276 276 276 276 277 278 279 280 281 282 282 283 285 286 287
246 247 248 247 247 248 249 250 250 251 252 253 255 258 259 260 262 264 266 267 269 269 269 270 271 272 273 273 273 273 275 276 276 277 277 279 280 282 283 284 284 285 286
Height
5755 5759 5763 5767 5770 5773 5777 5780 5783 5785 5788 5791 5793 5795 5797 5799 5800 5801 5802 5804 5804 5805 5805 5805 5805 5805 5804 5803 5802 5801 5800 5798 5796 5795 5793 5791 5789 5787 5785 5782 5780 5778 5775
5746 5750 5754 5758 5761 5765 5768 5771 5774 5777 5780 5783 5785 5787 5789 5791 5792 5794 5795 5796 5796 5797 5797 5798 5797 5797 5796 5795 5794 5793 5792 5790 5788 5786 5785 5783 5782 5779 5776 5774 5771 5769 5766
5737 5741 5745 5749 5753 5757 5760 5763 5766 5769 5772 5774 5777 5779 5781 5783 5785 5786 5787 5788 5788 5789 5789 5789 5789 5789 5788 5787 5786 5785 5783 5782 5780 5778 5776 5774 5772 5771 5769 5765 5763 5760 5757
5728 5732 5736 5740 5744 5747 5751 5754 5757 5760 5763 5766 5768 5771 5773 5775 5777 5778 5779 5780 5780 5781 5781 5781 5781 5780 5780 5779 5777 5776 5774 5773 5771 5769 5766 5764 5762 5760 5759 5757 5754 5751 5748
5718 5723 5727 5731 5734 5738 5741 5745 5748 5751 5754 5757 5760 5762 5764 5766 5768 5769 5770 5771 5772 5772 5772 5772 5772 5771 5770 5769 5768 5767 5765 5764 5762 5760 5757 5755 5752 5750 5748 5746 5744 5741 5738
5709 5713 5717 5721 5725 5729 5732 5736 5739 5742 5745 5748 5751 5753 5755 5757 5759 5760 5761 5762 5763 5763 5763 5763 5762 5762 5761 5760 5758 5757 5756 5754 5752 5750 5748 5745 5743 5740 5737 5735 5733 5731 5728
5699 5703 5707 5711 5715 5719 5723 5726 5730 5733 5736 5738 5741 5744 5746 5748 5750 5751 5752 5753 5753 5754 5754 5753 5753 5752 5751 5750 5749 5747 5746 5744 5742 5740 5738 5735 5733 5730 5727 5724 5722 5720 5718
5688 5693 5697 5701 5706 5709 5713 5717 5720 5723 5726 5729 5731 5734 5736 5738 5740 5741 5742 5743 5743 5744 5744 5743 5743 5742 5741 5740 5739 5738 5736 5734 5732 5730 5727 5725 5722 5719 5716 5713 5710 5708 5706
5678 5682 5687 5691 5695 5699 5703 5707 5710 5713 5716 5719 5721 5723 5726 5728 5730 5731 5732 5733 5733 5734 5733 5733 5732 5732 5731 5730 5729 5727 5725 5723 5721 5719 5717 5714 5711 5708 5705 5702 5698 5695 5693
5668 5672 5676 5681 5685 5689 5693 5696 5700 5703 5706 5709 5711 5713 5716 5717 5719 5720 5721 5722 5723 5723 5723 5722 5722 5721 5720 5719 5718 5717 5715 5713 5711 5708 5706 5703 5700 5697 5693 5690 5686 5683 5679
5657 5662 5666 5671 5675 5679 5682 5686 5690 5693 5696 5698 5701 5703 5705 5707 5708 5710 5711 5711 5712 5712 5712 5712 5711 5710 5710 5708 5707 5706 5704 5702 5699 5697 5694 5691 5688 5685 5681 5678 5674 5671 5667
5647 5651 5656 5660 5664 5668 5672 5676 5679 5682 5685 5688 5690 5693 5695 5696 5698 5699 5700 5701 5701 5701 5701 5701 5700 5699 5698 5697 5696 5694 5692 5690 5688 5685 5683 5679 5676 5673 5669 5666 5662 5659 5655
5637 5641 5645 5649 5653 5657 5661 5665 5668 5671 5674 5677 5679 5682 5684 5685 5687 5688 5689 5689 5690 5690 5689 5689 5689 5688 5687 5686 5684 5682 5680 5678 5676 5673 5670 5667 5664 5661 5657 5654 5650 5646 5642
5626 5630 5634 5638 5642 5646 5650 5653 5657 5660 5663 5665 5668 5670 5672 5674 5675 5676 5677 5678 5678 5678 5678 5678 5677 5676 5675 5673 5672 5670 5668 5666 5664 5661 5658 5655 5652 5649 5646 5642 5638 5634 5630
5616 5620 5624 5628 5631 5635 5639 5642 5645 5648 5651 5654 5657 5659 5661 5662 5664 5665 5665 5666 5666 5666 5666 5666 5665 5664 5663 5661 5660 5658 5656 5654 5652 5649 5647 5644 5641 5637 5634 5630 5626 5622 5618
5606 5610 5614 5617 5621 5624 5627 5631 5634 5637 5640 5643 5645 5647 5649 5651 5652 5653 5654 5654 5654 5655 5654 5654 5653 5652 5651 5649 5647 5646 5644 5642 5640 5637 5635 5632 5629 5626 5622 5618 5614 5610 5606
5596 5600 5603 5606 5610 5613 5616 5619 5622 5625 5628 5631 5633 5635 5637 5639 5640 5641 5642 5643 5643 5643 5642 5642 5641 5640 5639 5637 5635 5633 5632 5630 5627 5625 5623 5620 5617 5613 5610 5607 5603 5598 5594
5586 5589 5592 5596 5599 5602 5605 5608 5611 5614 5616 5619 5621 5624 5626 5627 5629 5630 5631 5631 5631 5631 5630 5630 5628 5627 5626 5625 5623 5621 5619 5617 5615 5613 5610 5608 5605 5602 5598 5595 5592 5588 5584
5576 5579 5582 5585 5588 5591 5594 5597 5600 5602 5605 5607 5610 5612 5614 5616 5617 5618 5619 5619 5619 5619 5618 5617 5616 5615 5614 5612 5610 5608 5607 5605 5603 5601 5598 5596 5593 5590 5587 5584 5581 5578 5575
5566 5569 5572 5574 5577 5580 5583 5586 5588 5591 5594 5596 5598 5600 5602 5604 5605 5606 5607 5607 5607 5606 5606 5605 5603 5602 5601 5599 5598 5596 5594 5593 5591 5589 5587 5584 5581 5578 5575 5573 5571 5568 5565
5556 5559 5561 5564 5567 5569 5572 5575 5577 5580 5582 5584 5586 5588 5590 5592 5593 5595 5595 5595 5595 5594 5594 5593 5592 5590 5589 5587 5585 5584 5582 5580 5579 5577 5575 5572 5570 5567 5565 5562 5560 5558 5555
5546 5549 5551 5554 5556 5559 5561 5564 5566 5569 5571 5573 5575 5577 5579 5580 5582 5583 5583 5583 5583 5583 5582 5581 5580 5578 5577 5575 5574 5572 5570 5569 5567 5566 5564 5561 5559 5557 5555 5553 5550 5548 5545
5537 5539 5542 5544 5546 5549 5551 5554 5556 5558 5560 5562 5564 5566 5568 5569 5570 5571 5571 5572 5571 5571 5570 5569 5568 5567 5566 5564 5563 5561 5560 5558 5556 5554 5553 5551 5549 5547 5544 5542 5540 5538 5536
5528 5530 5532 5534 5537 5539 5541 5544 5546 5548 5550 5552 5554 5555 5557 5558 5559 5559 5560 5560 5560 5560 5559 5558 5557 5556 5555 5553 5552 5551 5549 5547 5545 5544 5542 5540 5538 5536 5534 5532 5530 5528 5526
5519 5521 5523 5525 5527 5529 5531 5533 5536 5538 5540 5542 5543 5545 5546 5547 5548 5549 5549 5549 5549 5549 5548 5547 5546 5545 5544 5543 5541 5539 5538 5537 5535 5533 5532 5530 5528 5526 5524 5523 5521 5520 5518
5511 5512 5514 5516 5517 5519 5522 5523 5525 5527 5529 5531 5533 5534 5535 5537 5538 5538 5539 5538 5538 5538 5537 5536 5536 5534 5534 5532 5531 5530 5528 5527 5525 5524 5522 5520 5519 5517 5516 5514 5513 5511 5510